Location: Fort Worth, Tx
(32.7431°N, 97.3695°W)
Time: 08:26:31
(UTC-04:00)

Vanguard 1 Rocket - Pass Details

Date: 02 March 2024
Orbit: 652 x 4219 km, 34.3° (Epoch: 22 April)

Event Time Altitude Azimuth Distance (km) Brightness Sun altitude
Exits shadow 05:51:48 - 220° (SW) 7,396 11.6 -26.7°
Reaches altitude 10° 05:52:11 10° 220° (SW) 7,337 11.6 -26.7°
Maximum altitude 06:17:24 58° 149° (SSE) 4,206 10.8 -21.4°
Drops below altitude 10° 06:35:00 10° 76° (ENE) 5,416 12.6 -17.7°
Sets 06:38:23 0° 73° (ENE) 6,046 13.1 -17.0°
